Temp_Advection
nan nan nan nan nan nan nan nan nan nan nan nan nan nan nan nan nan nan nan nan nan nan nan nan nan nan nan nan nan nan nan nan nan nan nan nan nan nan nan nan nan nan nan nan nan nan nan nan nan nan nan nan nan nan nan nan nan nan nan nan nan nan nan nan nan nan nan nan nan
nan 1 1 1 1 1 1 1 1 0 0 0 0 0 0 0 0 0 0 -0 0 0 0 1 1 1 0 0 0 0 0 1 1 1 1 0 -0 -0 -0 -0 0 0 0 -0 -0 0 0 1 1 0 0 1 1 0 -0 -0 0 0 0 -0 -0 -0 -0 0 0 0 0 0 nan
nan 1 1 1 0 0 0 0 0 0 0 0 0 0 0 0 0 0 0 0 0 0 1 0 0 0 0 0 0 0 0 0 1 1 0 0 0 0 0 0 0 0 0 0 0 0 0 1 1 0 0 1 1 0 -0 -0 -0 0 -0 -0 -0 -0 -0 0 0 0 1 1 nan
nan 1 1 0 0 0 0 -0 -0 0 0 0 0 0 0 0 0 0 0 0 0 0 0 0 0 0 0 0 0 0 0 0 0 0 0 0 0 0 0 0 0 0 0 0 0 0 0 1 1 0 0 0 1 0 0 0 -0 -0 -0 -0 -0 -0 -0 0 0 1 1 1 nan
nan 0 0 0 0 -0 0 0 0 0 0 0 0 0 0 0 0 0 0 0 0 0 0 1 1 0 0 0 0 0 0 0 0 0 0 0 0 0 0 0 0 0 0 0 0 0 1 1 0 0 -0 0 0 1 1 1 0 -0 -0 -0 -0 -0 -0 0 0 1 1 1 nan
nan 0 0 0 0 0 0 0 0 0 0 0 0 0 0 0 0 0 0 0 0 0 1 1 1 0 0 0 0 0 0 0 0 0 0 0 0 0 0 0 0 0 0 0 0 0 0 0 0 0 -0 0 0 1 1 1 1 0 0 -0 -0 -0 -0 -0 0 1 1 1 nan
nan 1 0 0 0 0 0 0 0 0 0 0 0 0 0 0 0 0 0 0 0 1 0 0 0 0 0 0 0 0 0 0 0 0 0 0 0 0 -0 0 0 0 0 0 -0 0 0 0 0 0 -0 0 1 1 1 1 1 1 0 -0 -0 -0 -0 -0 0 0 1 1 nan
nan 1 0 0 0 0 0 0 0 0 0 0 0 0 0 0 0 0 0 0 0 0 0 0 0 0 0 0 0 0 0 0 0 0 0 0 0 0 0 0 0 0 0 -0 -0 0 0 0 0 0 0 0 1 1 1 1 1 1 1 0 0 0 0 0 0 0 0 1 nan
nan 0 0 0 0 0 0 0 0 0 0 -0 0 0 0 0 0 0 0 0 0 0 0 0 0 0 0 0 0 0 0 0 0 0 0 0 0 0 0 0 0 0 -0 -0 -0 0 0 0 0 0 0 0 0 1 1 1 2 1 1 0 0 0 0 -0 0 0 0 1 nan
nan 0 0 0 -0 -0 0 0 0 -0 -0 0 0 0 0 0 0 0 0 0 0 0 0 0 0 0 0 0 0 0 0 0 -0 0 0 0 0 0 0 0 0 0 0 -0 -0 -0 -0 0 0 0 0 0 0 1 1 2 2 2 1 1 1 0 -0 -1 -0 0 0 0 nan
nan -0 -0 -0 -0 -0 -0 0 -0 -0 0 0 0 0 0 0 0 0 1 0 0 0 0 0 0 -0 -0 -0 -0 -0 -0 -0 -0 -0 0 0 0 0 0 0 0 0 0 0 -0 -0 0 0 0 0 0 0 0 1 1 2 2 2 1 1 1 1 0 -0 -1 -1 -0 0 nan
nan -0 0 0 -0 -0 0 0 0 0 0 0 0 0 0 0 1 1 1 1 0 0 0 0 -0 -0 -0 -0 -0 -0 -0 -0 0 0 0 0 0 0 0 0 0 0 0 -0 -0 0 0 0 0 0 0 0 0 0 1 1 2 1 1 1 1 1 2 1 1 -0 -1 -1 nan
nan 0 0 0 0 0 0 0 0 0 0 0 0 0 0 1 1 1 0 0 0 0 0 -0 -0 -0 -0 -0 -0 -0 -0 0 0 0 0 0 -0 -0 -0 -0 -0 -0 -0 0 0 0 0 0 0 0 0 0 0 0 1 1 1 1 1 1 1 1 1 2 3 2 0 -1 nan
nan 0 0 0 0 0 0 0 0 0 0 0 0 0 1 1 1 0 0 0 0 -0 -0 0 0 0 -0 -0 -0 -0 0 0 0 0 -0 -0 -0 -0 -0 -0 -0 -0 0 0 0 0 0 0 0 0 0 0 0 0 1 1 1 1 1 0 0 0 1 2 3 3 2 0 nan
nan 0 0 0 0 0 0 0 0 0 0 0 0 0 1 1 0 0 -0 -0 -0 0 0 0 0 0 0 -0 -0 0 0 0 0 0 -0 -0 -0 -0 -0 -0 -0 -0 0 0 0 0 0 0 0 0 0 0 0 0 0 1 1 1 1 0 0 0 1 2 3 4 3 2 nan
nan 0 0 0 0 0 0 0 0 0 0 0 0 0 1 0 0 -0 -0 -0 0 0 0 0 0 0 0 0 0 0 0 0 0 0 0 -0 0 -0 -0 -0 -0 -0 -0 0 0 0 0 0 0 0 0 0 0 0 0 0 0 1 1 0 0 1 1 2 2 3 3 2 nan
nan 0 0 0 0 0 0 0 0 0 0 0 0 0 0 0 0 0 0 0 0 0 0 0 0 0 0 0 -0 0 0 0 0 0 -0 -0 -0 -0 -0 -0 -0 -0 -0 -0 -0 0 -0 -0 0 0 0 0 0 0 0 0 0 0 0 0 0 1 1 1 1 2 2 2 nan
nan 0 0 0 0 0 0 0 0 0 0 0 0 0 0 0 0 0 0 0 0 0 0 0 0 0 0 -0 -0 0 0 0 0 0 -0 -0 -0 -0 -0 -0 -0 -0 -0 -0 -0 -0 -0 -0 0 0 0 0 0 0 0 0 0 0 0 0 0 1 1 1 1 1 1 1 nan
nan 0 0 0 0 0 0 0 0 0 0 0 0 0 0 0 0 0 0 0 0 0 0 0 -0 -0 -0 0 0 0 0 0 0 0 0 -0 -0 -0 -0 -0 -0 -0 -0 -0 -0 -0 -0 -0 -0 -0 -0 -0 -0 0 0 0 0 0 0 0 0 0 0 1 1 1 1 -0 nan
nan 0 0 0 0 0 0 0 0 0 0 0 0 0 0 0 0 0 0 0 0 0 0 0 0 0 0 0 0 0 0 0 0 0 0 0 -0 -0 -0 -0 -0 -0 -0 -0 -0 -0 -0 -0 -0 -0 -0 -0 -0 0 0 0 0 0 0 0 0 0 0 0 1 0 -0 -1 nan
nan 0 0 0 0 0 0 0 0 0 0 0 0 0 0 0 0 0 0 0 0 0 0 0 0 0 0 0 0 0 0 0 0 0 1 1 0 0 0 -0 -0 -0 -0 -0 -0 -0 -0 0 0 0 0 0 0 0 0 -0 -0 -0 -0 0 0 0 0 0 0 0 -1 -1 nan
nan 0 0 0 0 0 0 0 0 0 0 0 0 0 0 0 0 0 0 0 0 0 0 0 0 0 0 0 0 0 0 0 0 0 1 1 1 1 0 0 -0 -0 -0 -0 -0 -0 -0 0 0 0 0 0 0 0 0 -0 -0 0 0 0 0 0 0 0 0 -0 -1 -1 nan
nan 0 0 0 0 0 0 0 0 0 0 0 0 0 0 0 0 0 0 0 0 0 0 0 0 0 0 0 0 0 0 0 0 0 0 1 1 1 1 0 -0 -0 -0 -0 -0 0 0 0 0 0 0 0 0 0 0 0 0 0 0 0 0 0 0 0 -0 -0 -0 -0 nan
nan 0 0 0 0 0 0 0 0 0 0 0 0 0 0 0 0 0 0 0 0 0 0 0 0 0 0 0 0 0 0 0 0 0 0 0 1 1 1 0 -0 -0 -0 -0 -0 0 0 0 0 0 0 0 0 -0 -0 0 0 0 0 0 0 0 0 0 -0 -0 -0 -0 nan
nan 0 0 0 0 0 0 0 0 0 0 0 0 0 0 0 0 0 0 0 0 0 0 0 0 0 0 0 0 0 0 0 0 0 0 1 1 1 1 0 -0 -0 -0 -0 0 0 0 0 0 0 0 0 0 -0 -0 0 0 0 0 0 0 0 0 0 -0 -0 -0 -0 nan
nan 0 0 0 0 0 0 0 0 0 0 0 0 0 0 0 0 0 0 0 0 0 0 0 0 0 0 0 0 0 0 1 1 1 1 1 1 1 1 0 -0 -0 -0 -0 0 0 0 0 0 0 0 -0 -0 -0 -0 0 0 0 0 0 0 0 0 0 0 0 0 0 nan
nan 0 0 0 0 0 0 0 0 0 0 0 0 0 0 0 0 0 0 0 0 0 0 0 0 0 0 0 0 0 1 1 1 1 1 1 1 1 0 0 -0 -0 -0 0 0 0 0 0 0 -0 -0 -0 -0 -0 0 0 0 0 0 0 0 0 0 0 0 0 0 0 nan
nan -0 0 0 0 0 -0 0 0 0 -0 -0 -0 -0 -0 -0 0 0 0 0 0 0 0 0 0 0 0 0 1 1 1 1 1 1 1 1 1 1 0 0 -0 -0 0 0 0 0 0 0 -0 -0 -0 -0 0 0 0 0 0 0 0 0 0 0 0 0 0 0 0 0 nan
nan -0 -0 -0 -0 -0 -0 -0 -0 -0 -0 -0 -0 -0 -0 0 0 0 0 0 0 0 0 0 0 0 1 1 1 1 1 1 1 1 1 1 1 1 0 0 -0 -0 0 0 0 0 0 0 -0 -0 -0 -0 0 0 0 0 0 0 0 0 0 0 0 0 0 0 0 0 nan
nan -0 -0 -0 -0 -0 -0 -0 -0 -0 -0 0 0 0 0 0 0 0 0 0 0 0 0 0 0 0 1 0 1 1 1 1 1 1 1 1 1 0 0 0 -0 -0 0 0 0 0 0 0 -0 -0 -0 -0 0 0 0 0 0 0 0 0 0 0 0 0 0 0 0 0 nan
nan -0 -0 -0 -0 -0 -0 0 0 0 0 0 0 0 0 0 0 0 0 0 0 0 0 0 0 0 0 0 1 1 1 1 1 1 1 1 0 0 0 0 -0 0 0 0 0 0 0 0 -0 -0 -0 -0 -0 0 0 0 0 0 0 0 0 0 0 0 0 0 0 0 nan
nan -0 -0 0 0 0 0 0 0 0 0 0 0 0 0 0 0 0 0 0 0 0 0 0 0 0 0 0 0 1 1 1 1 1 1 0 0 0 0 0 0 0 0 0 0 0 0 0 0 0 -0 -0 -0 0 0 0 0 0 0 0 0 0 0 0 0 0 0 0 nan
nan 0 0 0 0 0 0 0 0 -0 -0 -0 0 0 0 0 0 0 0 0 0 0 0 0 0 0 0 0 0 0 0 0 0 0 0 0 0 0 0 0 0 0 0 0 0 0 0 0 0 0 0 -0 -0 -0 0 0 0 0 0 0 0 0 0 0 0 0 0 0 nan
nan 0 0 0 0 0 0 0 0 0 0 0 0 0 0 0 0 0 0 0 0 0 0 0 0 0 0 0 0 0 0 0 0 0 0 0 0 0 0 0 -0 -0 -0 -0 0 0 0 0 0 0 0 0 -0 -0 -0 0 0 0 0 0 0 0 0 0 0 0 0 0 nan
nan 0 0 0 0 0 0 0 0 0 0 0 0 0 0 0 0 0 0 0 0 0 0 0 0 0 0 0 0 0 0 0 0 0 0 0 0 -0 -0 -0 -0 -0 -0 0 0 0 0 0 0 0 0 0 0 -0 0 0 0 0 0 0 0 0 0 0 0 0 0 0 nan
nan 0 0 0 0 0 0 0 0 0 0 0 0 0 0 0 0 0 0 0 0 0 0 0 0 0 0 0 0 0 0 0 0 0 0 -0 -0 -0 -0 -0 -0 -0 0 0 0 0 0 0 0 0 0 0 0 0 0 0 0 0 -0 -0 0 0 0 0 0 0 0 0 nan
nan 0 0 0 0 0 0 0 0 0 0 0 0 0 0 0 0 0 0 0 0 0 0 0 0 0 0 0 0 0 0 0 0 0 0 -0 -0 -0 -0 -0 0 0 0 0 0 0 0 0 0 0 0 0 0 0 0 -0 -0 -0 -0 -0 0 0 0 0 0 0 0 0 nan
nan -0 -0 0 0 0 0 0 0 0 0 0 0 0 0 0 0 0 0 0 0 0 0 0 0 0 0 0 0 0 0 0 0 0 0 0 0 0 0 0 0 0 0 0 0 0 0 0 0 0 0 -0 0 0 0 -0 -0 -0 -0 0 0 0 0 0 0 0 0 1 nan
nan -0 -0 -0 0 0 0 -0 -0 -0 -0 0 0 0 -0 0 0 -0 -0 -0 0 0 0 0 0 0 0 0 0 0 0 0 0 0 0 0 0 0 0 0 0 0 0 0 0 0 0 0 0 -0 -0 -0 -0 -0 -0 -0 -0 0 0 0 1 1 0 0 0 0 1 1 nan
nan -0 -0 -0 -0 -0 -0 -0 -0 -0 -0 -0 -0 -0 -0 -0 -0 -0 -0 -0 -0 -0 -0 -0 -0 0 0 0 0 0 0 0 0 0 0 0 0 0 0 0 0 0 0 0 0 0 0 0 -0 -0 0 0 0 -0 0 0 0 0 0 1 1 1 1 0 0 0 1 1 nan
nan nan nan nan nan nan nan nan nan nan nan nan nan nan nan nan nan nan nan nan nan nan nan nan nan nan nan nan nan nan nan nan nan nan nan nan nan nan nan nan nan nan nan nan nan nan nan nan nan nan nan nan nan nan nan nan nan nan nan nan nan nan nan nan nan nan nan nan nan
Wind_Speed
41 41 41 41 41 41 41 41 41 41 41 41 41 40 40 39 39 38 38 37 36 35 34 33 31 30 29 29 29 30 30 31 32 33 33 34 34 35 36 37 37 37 36 35 34 32 32 32 33 33 32 31 30 31 32 33 34 34 33 33 33 32 31 30 29 28 28 28 28
41 41 41 41 41 41 41 41 41 41 41 41 40 40 40 39 38 38 37 37 36 35 34 33 31 30 30 29 29 28 29 30 31 32 33 33 34 35 36 37 38 38 37 36 35 34 33 33 34 35 34 32 31 30 31 33 33 34 34 34 33 33 32 31 31 30 29 29 28
41 41 41 41 41 41 40 40 40 40 40 40 39 39 39 38 38 37 37 36 35 34 33 32 31 30 30 29 28 28 28 28 29 30 32 33 34 35 36 37 37 38 38 37 36 35 34 34 35 36 36 35 32 31 30 31 32 33 34 34 34 34 34 33 32 31 30 30 30
40 40 41 41 41 41 40 40 40 39 39 39 38 38 38 37 37 37 36 35 35 34 33 32 31 30 29 29 28 28 27 27 28 29 30 31 33 34 35 36 37 37 37 37 37 36 35 35 35 36 37 36 34 32 30 30 31 32 33 34 35 35 35 34 34 33 32 31 30
40 40 40 40 40 40 40 39 39 38 38 38 37 37 37 37 36 36 35 35 34 34 33 32 31 30 29 29 28 27 27 27 27 28 29 29 30 32 33 34 35 36 36 37 37 36 36 36 36 37 37 37 35 33 32 31 31 32 33 34 35 35 35 35 35 34 33 32 31
39 39 39 40 40 39 39 39 38 38 37 37 37 37 36 36 36 35 35 35 34 33 32 31 30 30 29 29 28 28 27 27 27 27 27 27 28 29 30 31 32 33 34 35 36 36 37 37 37 38 38 38 37 35 33 32 32 32 33 34 34 35 35 35 35 35 34 33 32
37 38 38 39 39 38 38 37 37 36 36 36 36 36 35 35 35 35 34 33 32 32 31 30 30 29 29 29 28 28 27 27 27 26 26 26 26 26 27 28 29 30 32 33 35 36 37 37 38 38 39 38 38 37 35 34 33 33 33 34 34 34 35 35 35 35 35 34 33
36 37 37 37 37 37 37 36 36 35 35 35 35 34 34 34 34 33 32 32 31 31 30 29 29 29 28 28 28 28 27 26 26 25 25 25 24 25 25 26 27 28 30 31 33 35 36 37 38 39 39 39 39 38 37 36 36 35 34 34 34 34 34 35 35 35 35 34 33
34 35 35 35 35 35 35 34 34 34 34 34 33 33 32 32 32 32 31 31 30 29 29 28 28 28 27 27 27 26 26 25 25 24 24 24 24 24 24 25 26 27 28 30 31 33 35 36 38 38 39 39 40 40 39 38 38 36 35 34 34 33 34 35 35 35 35 35 34
33 33 33 33 33 33 33 33 32 32 32 32 32 31 31 31 30 30 30 29 28 28 28 27 27 26 26 26 25 25 24 24 24 24 24 24 24 24 24 24 25 26 27 28 30 32 33 35 36 37 38 39 40 41 41 40 39 38 36 35 34 34 34 35 35 36 36 35 34
30 31 31 31 31 31 31 31 31 30 30 30 30 29 29 29 29 28 27 27 27 27 26 25 25 24 24 24 24 24 24 24 24 24 24 24 24 24 24 24 25 26 27 28 29 30 32 34 35 36 37 38 40 41 42 42 41 39 38 36 36 35 35 35 35 35 35 35 34
26 27 28 28 28 28 28 28 28 28 28 28 28 28 27 27 26 26 25 25 25 25 24 23 23 23 23 23 23 23 24 24 24 24 24 24 24 24 24 24 25 26 26 28 29 30 31 33 34 35 37 38 40 41 42 42 42 41 39 38 37 37 36 36 35 35 35 35 34
21 22 23 24 25 25 26 26 26 26 26 26 26 25 25 24 24 24 24 24 24 23 23 22 22 22 22 23 23 23 23 23 23 23 23 23 23 23 24 24 25 26 27 28 29 30 31 32 33 34 36 37 39 40 41 42 42 41 40 39 38 38 37 36 35 34 34 34 33
17 18 19 20 21 22 23 23 23 23 23 23 23 23 23 22 22 22 22 22 22 22 21 21 21 21 21 21 22 22 22 22 22 22 22 22 22 22 23 24 25 26 27 28 29 30 31 31 32 33 34 35 37 38 39 40 40 40 39 39 38 37 37 36 34 34 33 32 31
14 15 17 18 19 19 20 20 20 21 21 21 21 21 20 20 20 21 21 21 20 20 20 20 20 19 20 20 20 21 21 21 21 21 21 20 20 21 21 22 24 25 26 27 27 28 28 29 29 30 31 32 33 34 35 36 37 38 38 38 37 37 36 35 34 34 32 31 30
13 14 15 16 16 17 18 18 18 18 19 19 18 18 19 19 19 19 19 19 19 18 18 18 18 18 19 19 19 19 20 20 20 19 19 19 19 20 20 21 22 23 23 24 25 25 25 26 26 28 29 30 31 32 33 34 34 35 35 36 36 36 36 35 34 33 31 29 28
12 13 13 14 15 15 15 16 16 16 16 17 17 17 17 17 17 17 17 17 17 17 17 17 17 18 18 18 18 18 18 18 18 18 18 18 19 19 20 21 21 21 22 22 23 23 24 24 25 26 27 29 29 30 31 31 32 32 33 33 34 34 33 33 32 30 28 26 25
11 11 12 12 13 13 13 14 14 14 15 15 15 15 16 16 16 16 16 16 16 16 17 17 17 17 18 18 18 17 17 17 17 17 17 17 18 19 19 20 20 20 21 21 22 22 23 23 24 25 26 27 27 28 28 28 28 28 29 29 29 29 29 29 28 26 24 22 22
10 10 10 11 11 11 12 12 13 13 14 14 14 14 15 15 15 15 16 16 16 16 16 16 17 17 17 17 16 16 16 16 16 15 16 16 16 17 18 18 19 19 19 20 20 21 21 22 22 23 24 24 25 25 25 25 24 24 24 24 24 24 24 24 24 22 21 20 22
9 9 9 10 10 11 11 12 12 13 13 13 14 14 14 14 15 15 15 15 15 16 16 16 17 16 16 16 15 15 15 15 15 15 15 15 16 16 16 17 17 17 18 18 18 19 19 20 20 21 22 22 22 22 22 21 21 20 20 20 20 21 21 22 21 20 20 21 23
9 9 9 9 10 10 11 11 12 12 13 13 13 13 14 14 14 14 14 15 15 15 16 16 16 15 15 15 15 15 15 16 16 16 15 15 16 16 16 16 17 17 17 17 17 17 18 19 19 20 20 20 20 20 19 19 19 19 18 19 19 19 20 20 20 20 21 22 24
8 9 9 9 9 10 11 11 12 12 13 13 13 13 14 14 14 14 14 14 15 15 15 16 16 16 16 16 16 16 16 16 16 16 16 16 16 16 17 17 16 16 16 16 16 17 17 18 19 19 19 19 18 18 18 18 18 18 18 17 17 18 18 18 19 20 21 22 23
9 9 9 9 10 10 11 11 12 12 13 13 13 14 14 14 14 14 14 15 15 16 16 16 16 16 16 16 16 16 16 17 17 17 17 16 16 16 16 16 16 16 15 15 16 17 17 18 18 18 18 17 17 17 17 17 17 17 17 16 16 16 16 17 18 19 20 21 22
9 9 9 10 10 10 11 11 12 12 12 13 13 14 14 14 14 14 15 15 16 16 16 16 17 17 17 17 17 17 17 17 17 17 17 17 16 16 16 15 15 15 15 15 16 17 17 17 17 17 16 16 16 16 16 16 16 16 16 15 15 15 15 16 17 18 19 21 22
9 9 9 10 10 10 11 11 11 12 12 13 13 13 14 14 15 15 15 16 16 17 17 17 17 17 17 17 17 17 17 17 17 17 17 16 16 15 15 14 14 14 14 15 15 16 17 17 16 16 15 15 15 15 15 15 15 15 15 14 14 14 15 15 16 17 19 20 21
9 9 9 10 10 10 10 11 11 12 12 13 13 14 14 15 15 16 16 17 17 17 17 18 18 18 18 18 18 18 18 17 17 17 17 16 15 14 13 14 13 13 14 14 15 16 16 16 15 15 14 14 14 14 14 13 13 13 13 13 14 14 14 15 16 17 18 20 21
9 9 9 10 10 10 10 11 11 12 12 13 13 14 15 16 16 17 17 17 18 18 18 18 18 18 18 18 18 18 18 17 17 17 16 15 14 13 13 14 14 14 14 14 14 15 15 15 14 14 13 13 13 12 12 12 12 12 12 13 13 13 14 15 16 17 18 19 20
10 10 10 10 10 10 11 11 12 12 13 13 14 15 15 16 16 16 17 17 17 18 18 18 18 18 18 18 18 18 17 17 17 16 15 15 14 14 14 14 14 14 13 13 14 14 14 14 13 13 12 12 11 11 11 11 11 11 12 12 13 13 14 14 15 16 18 19 20
10 10 10 10 10 11 11 11 12 12 13 13 14 14 15 15 15 16 16 16 17 17 17 17 17 17 17 17 17 17 17 16 16 15 15 14 14 14 15 15 14 13 13 13 13 13 13 12 12 12 11 11 10 10 10 10 10 11 11 12 12 13 13 14 15 16 17 18 19
10 10 10 10 10 10 11 11 11 11 12 12 12 12 13 13 13 14 14 14 15 15 15 15 15 15 15 15 15 15 15 15 15 15 14 14 13 14 14 15 14 13 12 13 13 12 12 11 11 11 10 10 9 8 8 9 9 10 10 11 12 12 13 14 15 15 16 17 18
10 10 9 9 9 9 9 9 9 9 9 9 10 10 10 11 11 11 11 12 12 12 12 12 13 13 13 13 13 13 13 14 14 14 13 13 13 13 14 14 13 12 12 12 12 11 10 10 9 9 9 9 8 7 7 8 8 9 9 10 11 11 12 13 14 15 16 17 18
8 8 8 8 7 7 7 7 7 7 7 7 7 8 8 8 8 8 8 9 9 9 10 10 10 11 11 11 11 12 12 12 12 12 12 12 12 12 13 13 12 11 11 11 10 9 9 8 8 7 8 8 8 7 6 7 7 8 8 9 10 10 11 12 13 15 16 17 18
7 7 7 6 6 6 6 6 6 6 6 6 6 6 6 6 6 6 6 6 7 7 7 8 8 8 9 9 9 9 10 10 10 10 10 10 10 10 11 11 10 10 9 9 8 8 7 7 6 6 6 7 7 7 7 6 7 7 8 9 10 11 12 13 14 15 16 18 19
8 7 7 6 6 6 6 6 6 5 5 5 5 4 4 4 4 5 5 5 5 5 6 6 6 6 7 7 7 7 7 8 8 8 8 8 8 8 9 9 9 8 8 7 7 7 6 6 5 5 5 6 7 7 7 7 8 8 9 10 11 12 13 14 15 16 17 19 20
9 8 8 8 7 7 7 6 6 5 5 5 5 4 4 4 4 4 4 4 4 4 4 4 5 5 5 6 6 6 6 6 6 6 7 7 7 7 7 8 8 8 7 7 7 6 6 6 5 5 6 6 7 8 8 9 9 10 11 12 12 13 14 15 16 17 19 20 21
10 9 9 9 8 8 7 7 6 6 6 5 5 5 4 4 4 4 3 3 3 3 3 3 3 4 4 4 4 4 5 5 5 5 6 6 6 7 7 8 8 8 7 7 7 7 7 6 6 6 7 7 8 9 9 10 11 12 12 13 14 15 16 17 19 20 21 22 23
11 10 9 9 8 8 7 7 7 6 6 6 5 5 5 4 4 4 3 3 2 3 3 2 3 3 3 3 3 4 4 4 4 5 5 6 6 7 7 7 7 7 7 7 7 7 7 7 7 7 8 8 9 10 10 11 12 13 14 15 16 18 19 20 21 22 23 24 25
11 10 9 9 9 8 8 7 7 7 7 6 6 5 5 4 4 4 4 3 3 3 3 3 3 3 3 3 3 4 4 4 4 4 5 5 5 6 6 6 6 6 6 6 6 6 6 6 7 8 9 9 10 11 12 13 14 15 16 18 19 20 21 22 23 23 24 25 25
10 10 9 9 9 8 8 8 8 7 7 7 6 6 5 5 5 5 4 4 4 4 4 4 4 4 3 3 3 3 4 4 4 4 4 4 4 4 4 4 4 4 4 4 4 5 5 6 8 9 10 11 12 13 14 15 16 17 18 19 20 21 22 22 23 23 24 24 25
10 10 10 10 9 9 9 8 8 8 7 7 7 7 6 6 6 5 5 5 5 4 4 4 4 3 3 3 3 3 3 3 3 3 3 2 2 2 2 3 3 3 3 4 5 5 6 8 10 11 12 13 14 15 16 17 18 19 20 21 21 21 22 23 23 24 24 24 24
11 10 10 10 9 9 9 9 8 8 8 8 8 7 7 6 6 6 5 5 5 5 4 4 3 3 3 3 2 2 2 2 2 1 1 1 1 1 2 3 4 4 5 6 7 8 9 10 12 13 15 16 16 17 18 19 19 20 21 21 21 22 22 23 23 24 24 24 24
Wind_Direction
233 234 235 236 238 239 240 242 243 245 246 247 248 250 252 253 255 257 260 262 264 266 267 269 270 270 269 268 266 264 263 262 261 260 261 261 262 262 261 260 259 260 260 259 259 259 259 260 261 259 256 252 250 250 250 250 250 251 252 254 255 256 257 258 260 261 262 263 265
232 233 235 236 237 239 240 242 243 244 246 248 249 251 253 255 257 259 261 263 266 268 270 271 272 272 271 271 270 269 267 266 265 264 264 265 265 264 263 262 262 262 261 261 260 260 260 261 262 262 260 256 253 252 252 253 252 252 253 253 254 255 256 257 258 259 260 261 262
232 233 234 235 237 238 239 241 243 245 247 249 251 253 254 256 258 260 262 265 267 269 270 271 272 273 273 273 273 272 271 269 268 268 267 267 267 266 266 265 264 264 263 262 261 261 261 262 262 263 263 261 256 255 255 256 255 255 254 254 254 255 255 256 257 258 259 259 260
232 233 234 235 236 238 240 242 244 246 248 250 252 254 255 257 259 261 263 266 267 269 270 272 273 274 274 274 273 273 273 272 271 270 269 269 269 269 268 268 267 265 264 263 263 262 262 263 263 263 263 263 260 259 259 259 259 258 257 256 255 255 255 256 257 257 257 258 258
233 233 234 236 237 239 242 244 246 248 250 252 253 254 256 258 260 262 264 266 267 269 271 273 274 274 275 275 274 274 274 274 273 273 272 272 272 271 270 269 268 267 266 265 264 263 263 263 263 263 264 264 263 262 262 261 261 260 259 258 257 256 256 256 257 257 257 257 257
233 234 235 237 239 240 242 244 246 248 250 252 254 255 257 259 261 263 265 267 269 272 273 274 274 275 275 276 276 276 276 276 275 275 274 274 274 273 272 271 269 268 267 266 265 264 264 263 263 264 264 264 263 263 262 261 261 260 260 259 258 257 257 257 257 257 257 257 257
235 235 236 238 239 241 242 245 247 248 250 252 254 256 258 260 262 264 267 269 271 273 273 274 275 276 276 277 278 278 278 278 278 277 277 276 275 274 273 272 271 269 268 267 265 265 264 264 264 264 264 264 264 263 262 261 260 260 260 259 259 259 258 258 258 257 257 257 257
236 236 237 238 240 241 243 245 247 249 251 253 255 257 259 262 264 266 268 270 271 273 274 275 276 277 279 280 280 281 281 281 280 280 279 278 277 276 275 274 273 271 270 268 267 266 266 266 265 265 265 265 265 264 263 262 260 259 259 259 260 260 260 259 258 258 258 258 257
236 236 237 239 241 242 244 246 248 250 252 254 257 259 261 263 265 267 269 270 272 274 275 276 277 279 280 281 282 282 282 282 282 282 281 280 279 278 277 276 275 274 272 271 270 268 268 267 267 267 267 267 266 266 264 263 260 259 258 258 259 259 260 260 259 259 258 258 258
236 237 238 239 241 243 245 247 250 252 254 256 259 261 263 265 266 268 269 271 273 274 275 277 278 279 280 281 282 283 283 283 283 282 282 281 281 280 280 279 278 277 275 274 272 271 270 270 269 269 269 269 268 267 266 264 262 260 259 258 258 258 258 258 259 259 259 259 258
239 240 241 242 243 245 247 249 251 253 255 257 260 261 263 265 266 268 270 272 273 274 275 277 278 279 280 281 282 282 282 282 282 282 282 283 283 283 283 281 280 279 277 276 274 273 272 272 272 272 271 270 269 268 267 266 265 264 262 262 261 259 258 258 258 258 259 259 258
242 242 244 245 246 247 249 250 252 254 256 258 260 261 263 264 266 268 269 270 271 272 274 276 277 278 279 280 281 282 283 283 283 284 285 286 286 285 284 283 282 280 278 277 275 274 273 273 273 273 273 272 271 270 270 269 269 268 267 266 265 264 262 260 258 258 259 260 259
243 244 245 246 247 248 250 251 252 254 256 257 259 261 263 264 265 266 267 268 270 272 274 276 278 279 280 282 283 284 284 285 286 287 287 287 287 286 285 284 282 281 279 277 275 274 273 273 273 273 273 274 273 273 273 272 272 271 271 270 269 269 267 264 260 258 259 260 260
242 243 244 245 246 248 249 250 252 253 255 257 259 261 262 264 264 265 267 268 270 273 275 277 279 281 282 284 285 286 286 287 287 287 287 287 287 286 286 285 284 282 281 279 278 277 276 276 276 276 276 276 276 276 276 275 275 274 273 273 272 271 270 267 263 259 258 258 259
239 240 242 243 244 246 247 249 250 252 254 256 258 260 262 263 264 266 268 270 273 275 277 279 281 283 284 285 286 286 287 287 287 287 286 286 286 285 285 285 286 286 286 285 284 283 283 283 283 282 281 281 280 279 279 278 278 277 275 274 273 272 271 269 265 261 257 256 257
235 237 238 240 242 244 245 247 249 251 253 256 258 260 262 264 266 267 269 272 274 276 279 281 283 284 285 285 285 285 285 285 285 286 285 285 284 284 284 285 286 288 289 289 289 289 288 288 287 287 286 285 284 283 282 281 280 279 278 277 275 274 273 272 269 265 261 257 256
232 234 236 239 241 243 245 247 249 252 254 256 259 261 263 265 267 269 271 273 275 277 279 281 283 283 283 283 283 283 283 284 284 285 285 286 286 286 286 286 287 287 287 288 288 288 287 286 286 286 286 286 286 286 285 284 283 282 281 280 280 279 278 277 274 271 266 260 257
230 232 235 238 240 243 245 247 250 253 255 258 260 262 264 266 267 270 272 274 275 277 278 280 280 279 279 278 279 280 281 282 283 284 285 287 288 289 289 289 288 288 287 286 286 286 286 285 285 285 285 285 286 286 286 287 287 286 286 286 286 285 284 283 279 275 270 263 259
226 230 233 237 240 243 246 249 252 254 257 259 261 263 264 266 268 270 271 273 274 275 275 275 274 274 274 275 276 278 279 280 281 282 283 284 285 286 287 288 288 288 288 288 287 288 287 287 287 286 286 286 286 287 288 289 290 290 290 289 289 288 287 285 283 278 272 265 259
222 226 230 235 239 243 246 249 252 255 258 260 261 263 264 265 267 268 268 269 270 271 270 269 269 270 271 273 275 276 276 277 277 277 277 277 278 279 280 282 283 284 285 286 287 288 289 289 289 289 289 289 290 290 291 291 291 290 289 288 287 287 287 286 283 278 271 264 258
216 221 227 232 237 242 246 249 252 255 257 258 260 261 261 262 263 263 263 264 265 265 265 265 267 268 270 271 272 272 272 272 272 272 272 271 271 271 271 272 274 275 276 278 281 284 286 288 290 290 291 291 292 292 293 292 291 289 288 286 286 285 285 283 279 274 267 261 256
210 216 222 229 235 240 244 248 251 253 254 255 256 257 257 257 258 258 259 260 261 262 263 265 266 268 268 269 268 268 268 268 268 268 268 268 268 267 267 267 267 268 269 271 275 279 282 285 287 289 291 292 292 292 292 291 290 288 287 285 284 282 280 277 273 268 263 258 254
205 211 218 225 231 236 241 245 247 249 251 252 253 254 255 255 256 256 257 258 259 261 263 264 265 266 266 266 265 265 265 265 265 266 266 266 266 267 267 266 266 265 265 267 271 276 280 283 285 287 288 290 290 291 290 289 288 286 284 281 278 276 273 270 267 263 260 256 252
202 208 214 220 227 232 237 240 243 246 248 250 252 253 254 255 256 257 257 258 260 261 262 263 263 264 264 264 264 264 263 263 264 264 264 265 265 265 265 264 264 263 263 265 269 273 278 281 283 284 286 287 287 287 287 286 283 281 278 274 271 268 266 264 262 260 258 255 251
200 205 210 216 222 228 232 237 240 243 246 248 251 253 254 255 256 257 258 259 260 261 261 262 262 263 263 263 263 263 263 262 262 262 262 263 263 263 262 261 260 260 262 265 269 272 275 277 279 281 282 283 283 282 281 280 278 275 271 268 265 263 261 260 259 258 256 253 250
197 202 208 213 219 224 229 233 237 240 243 246 248 250 252 254 255 256 257 258 260 261 261 262 262 262 263 262 262 262 262 261 261 260 260 260 260 258 256 255 256 258 261 264 269 272 274 275 276 276 277 277 277 276 275 274 272 269 266 263 261 260 260 259 258 257 255 252 249
196 202 206 211 216 221 227 230 233 237 240 243 246 248 250 252 254 256 257 258 260 261 262 263 263 263 263 263 263 262 262 261 259 258 257 256 255 253 250 249 251 255 259 263 268 271 272 273 273 272 271 270 270 270 269 269 267 265 262 261 259 259 259 259 258 257 254 251 247
197 201 206 210 216 220 224 228 232 236 239 242 245 247 250 252 255 257 259 261 262 263 264 264 264 265 265 265 264 262 261 259 257 255 252 250 249 248 247 246 249 253 257 261 265 267 269 269 270 269 267 266 265 266 266 266 266 265 263 261 260 259 259 258 258 256 253 250 246
197 201 206 211 216 221 225 229 233 237 240 244 247 250 253 256 259 261 262 264 265 266 266 266 267 267 266 265 264 262 260 258 255 252 248 246 246 245 245 246 249 253 255 258 260 262 264 265 266 266 265 263 263 265 266 267 268 267 266 264 262 261 259 258 257 255 253 250 246
198 202 207 212 217 222 226 231 235 240 244 248 252 255 258 260 262 263 265 266 267 268 268 269 269 268 266 264 263 261 259 256 253 249 246 245 244 244 245 247 250 252 253 254 256 258 259 261 263 265 266 265 264 266 269 271 272 271 271 268 266 264 262 260 258 256 254 252 250
197 201 206 211 216 221 226 231 237 241 246 250 253 255 258 260 262 264 266 267 268 269 270 270 268 266 264 264 262 260 258 255 253 249 246 245 243 243 244 248 250 250 249 250 252 254 257 258 262 267 271 272 269 270 272 274 275 275 273 271 269 267 264 262 260 259 257 256 256
191 195 200 205 210 215 220 225 230 235 238 242 246 249 253 257 259 261 264 266 267 268 267 266 264 262 262 261 260 259 258 256 253 251 249 246 243 242 243 245 246 246 245 246 248 252 255 258 264 271 278 281 278 276 275 274 274 272 270 269 267 265 263 262 261 260 259 260 260
177 180 184 188 193 198 202 207 212 216 221 226 231 237 242 247 249 251 254 256 259 259 260 259 259 259 258 258 258 258 256 255 254 252 250 246 243 240 240 240 240 240 241 243 246 249 252 257 262 269 278 283 281 277 273 270 267 264 262 260 260 259 259 259 260 260 261 262 263
161 162 165 168 172 176 181 187 191 196 201 206 210 216 222 227 231 234 236 238 242 247 250 253 254 254 255 256 255 254 253 252 251 248 246 243 238 236 234 234 234 235 236 238 241 243 245 248 252 256 263 269 273 272 269 264 260 256 255 254 255 256 258 260 261 262 264 265 267
151 152 153 156 160 164 168 171 174 178 180 183 187 190 194 199 204 208 210 216 223 231 237 243 248 250 250 250 249 248 246 244 243 240 237 233 230 228 228 228 230 231 231 230 232 232 233 234 236 239 244 250 258 261 262 260 258 257 256 257 258 260 263 265 266 267 269 270 271
147 148 149 151 154 156 158 159 160 162 163 164 167 169 171 173 175 177 181 191 201 207 213 223 232 234 233 232 234 234 233 232 231 230 226 224 222 222 224 226 228 228 228 226 226 227 227 228 230 233 237 242 248 253 257 259 262 264 265 267 269 270 271 273 274 275 276 277 278
145 145 145 146 146 147 147 148 149 149 149 149 149 150 151 152 152 151 153 160 169 175 181 187 191 191 194 200 204 208 215 220 221 220 217 217 219 222 225 228 228 227 227 227 228 229 231 234 238 241 246 250 253 258 263 267 271 274 276 277 278 279 279 279 280 281 282 283 284
143 141 140 139 138 138 139 139 138 137 136 134 133 132 133 135 134 133 132 136 147 154 157 160 161 165 172 183 186 191 195 200 204 206 207 210 216 222 227 229 228 228 229 232 234 238 243 248 254 258 262 265 268 271 275 277 279 281 281 282 283 283 282 283 283 283 284 284 285
138 137 134 133 132 132 132 130 129 128 127 126 125 124 124 125 124 123 122 126 133 139 144 147 149 152 160 170 174 175 176 180 187 191 196 200 212 223 232 235 235 238 242 246 250 255 261 266 269 272 274 276 278 280 281 282 282 282 283 283 283 282 282 281 281 281 282 282 283
135 133 131 129 128 127 126 125 124 123 122 122 123 122 121 121 118 117 117 122 127 131 135 138 138 140 144 152 154 154 155 160 165 173 182 193 213 235 252 262 271 277 278 277 277 278 278 278 279 280 281 281 282 282 283 283 283 283 283 283 282 282 281 280 280 280 281 281 282
132 131 129 127 125 124 122 122 120 120 119 120 120 118 115 113 112 112 114 119 122 125 127 128 124 123 122 124 124 124 124 124 130 140 159 203 249 277 291 297 301 299 295 291 288 286 285 284 284 284 284 284 284 284 284 284 284 284 283 284 284 283 283 282 282 282 282 282 284
Height
1473 1474 1475 1476 1478 1479 1480 1481 1482 1483 1484 1486 1487 1488 1489 1491 1492 1493 1494 1495 1496 1497 1499 1500 1501 1502 1503 1504 1505 1506 1506 1507 1508 1508 1508 1509 1509 1509 1510 1511 1511 1512 1512 1513 1514 1515 1516 1516 1516 1515 1515 1516 1517 1518 1518 1519 1519 1520 1520 1520 1520 1521 1521 1521 1521 1521 1521 1520 1520
1472 1473 1474 1476 1477 1478 1479 1480 1481 1482 1484 1485 1486 1487 1489 1490 1491 1492 1493 1494 1495 1496 1498 1499 1500 1501 1502 1503 1504 1505 1505 1506 1506 1507 1507 1507 1507 1508 1509 1509 1510 1510 1511 1511 1512 1513 1514 1514 1514 1514 1513 1514 1515 1516 1516 1517 1517 1518 1518 1518 1518 1519 1519 1519 1519 1519 1519 1519 1519
1471 1472 1473 1475 1476 1477 1478 1479 1480 1482 1483 1484 1486 1487 1488 1489 1490 1491 1492 1493 1495 1496 1497 1498 1499 1500 1501 1502 1502 1503 1504 1505 1505 1506 1506 1506 1506 1507 1507 1507 1508 1509 1509 1510 1510 1511 1512 1512 1513 1512 1512 1512 1512 1513 1514 1515 1516 1516 1516 1516 1516 1517 1517 1516 1517 1517 1517 1517 1517
1470 1471 1472 1473 1474 1476 1477 1478 1480 1481 1482 1484 1485 1486 1487 1489 1490 1491 1491 1493 1494 1495 1496 1497 1498 1499 1500 1500 1501 1502 1502 1503 1504 1504 1504 1505 1505 1506 1506 1506 1506 1507 1507 1508 1509 1509 1510 1511 1511 1511 1510 1510 1510 1511 1512 1513 1514 1514 1514 1514 1515 1515 1515 1515 1515 1515 1515 1515 1515
1469 1470 1471 1472 1473 1475 1476 1478 1479 1481 1482 1483 1485 1486 1487 1488 1489 1490 1491 1491 1492 1494 1495 1496 1496 1497 1498 1499 1500 1500 1501 1502 1502 1503 1503 1503 1504 1504 1505 1505 1505 1506 1506 1506 1507 1507 1508 1509 1509 1509 1508 1508 1509 1509 1510 1511 1511 1512 1512 1512 1512 1512 1512 1513 1513 1513 1513 1513 1513
1468 1469 1471 1471 1473 1474 1476 1477 1479 1480 1481 1483 1484 1485 1486 1487 1488 1489 1490 1491 1491 1493 1494 1495 1496 1496 1497 1498 1498 1499 1500 1500 1501 1501 1501 1502 1502 1503 1503 1503 1503 1504 1504 1505 1505 1506 1506 1506 1507 1506 1506 1507 1507 1508 1508 1509 1509 1510 1510 1510 1510 1510 1511 1511 1511 1511 1511 1511 1511
1467 1469 1470 1471 1472 1474 1475 1476 1478 1479 1481 1481 1483 1484 1485 1486 1486 1487 1488 1490 1491 1492 1493 1493 1494 1495 1496 1496 1497 1497 1498 1499 1499 1500 1500 1501 1501 1501 1501 1501 1502 1502 1502 1503 1503 1504 1504 1505 1505 1505 1505 1505 1505 1506 1506 1506 1507 1507 1507 1508 1508 1509 1509 1509 1509 1510 1510 1510 1510
1466 1468 1469 1470 1471 1473 1474 1476 1477 1478 1480 1481 1481 1482 1484 1485 1486 1487 1488 1489 1490 1491 1491 1492 1493 1494 1494 1495 1495 1496 1496 1497 1498 1498 1499 1499 1499 1500 1500 1500 1500 1501 1501 1501 1502 1502 1502 1502 1502 1502 1503 1503 1503 1503 1504 1504 1504 1505 1505 1506 1506 1507 1507 1508 1508 1508 1508 1508 1508
1466 1467 1468 1469 1471 1472 1473 1475 1476 1477 1478 1479 1481 1481 1483 1484 1485 1486 1487 1487 1488 1489 1490 1491 1492 1492 1493 1493 1494 1495 1495 1496 1496 1496 1497 1497 1497 1498 1498 1498 1499 1499 1499 1500 1500 1500 1500 1501 1501 1501 1501 1501 1501 1501 1501 1501 1501 1502 1503 1504 1505 1505 1506 1506 1506 1506 1506 1506 1506
1465 1466 1467 1469 1470 1471 1473 1474 1475 1476 1477 1478 1480 1481 1482 1483 1484 1485 1486 1486 1487 1488 1489 1490 1491 1491 1491 1492 1492 1493 1494 1494 1495 1495 1495 1496 1496 1496 1496 1496 1497 1497 1497 1498 1498 1498 1499 1499 1499 1499 1499 1499 1499 1499 1499 1499 1499 1500 1501 1501 1502 1503 1503 1503 1504 1504 1504 1504 1505
1464 1466 1467 1468 1469 1471 1472 1473 1474 1476 1476 1477 1479 1480 1481 1482 1483 1484 1485 1486 1486 1487 1488 1488 1489 1490 1490 1491 1491 1492 1492 1492 1493 1493 1493 1494 1494 1494 1495 1495 1495 1496 1496 1496 1496 1496 1497 1497 1497 1497 1497 1497 1497 1497 1497 1497 1497 1497 1498 1499 1500 1500 1500 1500 1501 1501 1502 1502 1502
1463 1465 1466 1467 1469 1470 1471 1472 1473 1475 1476 1476 1478 1479 1480 1481 1482 1483 1484 1485 1485 1486 1486 1487 1488 1488 1489 1489 1490 1490 1491 1491 1491 1491 1492 1492 1492 1493 1493 1493 1493 1494 1494 1494 1495 1495 1495 1495 1495 1495 1495 1495 1495 1495 1495 1495 1495 1496 1496 1496 1497 1497 1497 1498 1498 1499 1500 1500 1501
1462 1464 1465 1466 1468 1469 1470 1471 1472 1474 1475 1476 1477 1478 1479 1480 1481 1482 1483 1483 1484 1485 1485 1486 1486 1487 1487 1488 1488 1489 1489 1489 1490 1490 1490 1491 1491 1491 1491 1491 1492 1492 1492 1492 1492 1493 1493 1493 1493 1493 1493 1493 1493 1493 1493 1493 1493 1493 1494 1494 1495 1495 1495 1496 1496 1497 1498 1499 1499
1462 1463 1464 1466 1467 1468 1469 1470 1471 1473 1474 1475 1476 1477 1478 1479 1480 1481 1481 1482 1483 1483 1484 1484 1485 1486 1486 1486 1487 1487 1488 1488 1488 1489 1489 1489 1489 1490 1490 1490 1490 1490 1490 1491 1491 1491 1491 1491 1491 1491 1491 1491 1491 1491 1491 1491 1491 1491 1491 1492 1492 1493 1493 1493 1494 1494 1495 1496 1497
1461 1462 1463 1465 1466 1467 1468 1470 1471 1472 1473 1474 1475 1476 1477 1478 1479 1480 1480 1481 1481 1482 1483 1483 1484 1484 1485 1485 1486 1486 1486 1486 1487 1487 1487 1488 1488 1488 1488 1488 1488 1489 1489 1488 1488 1489 1489 1489 1489 1489 1489 1489 1489 1489 1489 1489 1489 1489 1489 1490 1490 1491 1491 1491 1491 1491 1492 1493 1494
1460 1461 1463 1464 1465 1466 1468 1469 1470 1471 1472 1473 1474 1475 1476 1477 1478 1478 1479 1480 1481 1481 1481 1482 1482 1483 1483 1484 1484 1485 1485 1485 1485 1486 1486 1486 1486 1487 1487 1487 1487 1487 1487 1487 1487 1487 1487 1487 1487 1487 1487 1487 1487 1487 1487 1487 1487 1487 1487 1487 1488 1488 1489 1489 1489 1489 1489 1490 1492
1460 1461 1462 1464 1465 1466 1467 1468 1469 1470 1471 1472 1473 1474 1475 1476 1476 1477 1478 1479 1479 1480 1480 1481 1481 1482 1482 1483 1483 1483 1483 1484 1484 1484 1484 1485 1485 1485 1485 1485 1486 1486 1486 1486 1486 1486 1486 1486 1486 1486 1486 1486 1485 1485 1485 1485 1485 1485 1485 1485 1486 1486 1486 1487 1487 1487 1487 1488 1490
1460 1461 1462 1463 1464 1466 1466 1468 1469 1470 1471 1471 1472 1473 1474 1475 1476 1476 1477 1478 1478 1479 1479 1480 1480 1481 1481 1481 1481 1482 1482 1482 1482 1483 1483 1483 1483 1483 1483 1483 1484 1484 1484 1484 1484 1484 1484 1484 1484 1484 1484 1484 1484 1483 1483 1483 1483 1483 1483 1484 1484 1484 1484 1485 1485 1485 1486 1486 1488
1460 1461 1462 1463 1464 1465 1466 1467 1468 1469 1470 1471 1471 1472 1473 1474 1475 1475 1476 1476 1477 1477 1478 1479 1479 1479 1480 1480 1480 1481 1481 1481 1481 1481 1481 1482 1482 1482 1482 1482 1482 1482 1482 1482 1482 1482 1482 1482 1482 1482 1482 1482 1482 1482 1482 1482 1481 1482 1482 1482 1482 1482 1482 1482 1483 1483 1484 1485 1486
1459 1460 1461 1462 1463 1465 1466 1466 1467 1468 1469 1470 1471 1471 1472 1473 1474 1474 1475 1475 1476 1476 1477 1477 1477 1478 1478 1478 1479 1479 1479 1479 1480 1480 1480 1480 1480 1480 1480 1480 1480 1480 1480 1481 1481 1481 1481 1481 1481 1481 1481 1481 1480 1480 1480 1480 1480 1480 1480 1480 1480 1480 1480 1481 1481 1481 1483 1484 1485
1459 1460 1461 1462 1463 1464 1465 1466 1466 1467 1468 1469 1470 1471 1471 1472 1473 1473 1474 1474 1475 1475 1476 1476 1476 1476 1476 1477 1477 1477 1477 1478 1478 1478 1478 1478 1478 1478 1478 1479 1479 1479 1479 1479 1479 1479 1479 1479 1479 1479 1479 1479 1479 1478 1478 1478 1478 1478 1478 1478 1478 1478 1479 1479 1480 1481 1481 1483 1484
1459 1460 1461 1462 1462 1463 1464 1465 1466 1467 1467 1468 1469 1470 1470 1471 1471 1472 1473 1473 1473 1474 1474 1474 1475 1475 1475 1475 1476 1476 1476 1476 1476 1476 1476 1476 1477 1477 1477 1477 1477 1477 1478 1478 1478 1478 1478 1478 1477 1477 1477 1477 1476 1476 1476 1476 1476 1476 1476 1476 1476 1477 1477 1478 1479 1479 1480 1481 1482
1458 1459 1460 1461 1462 1463 1464 1464 1465 1466 1467 1467 1468 1469 1469 1470 1470 1471 1471 1471 1472 1472 1472 1473 1473 1473 1473 1474 1474 1474 1474 1474 1475 1475 1475 1475 1475 1475 1475 1476 1476 1476 1476 1476 1477 1476 1476 1476 1476 1476 1475 1475 1475 1475 1474 1474 1474 1474 1474 1475 1475 1476 1476 1477 1477 1478 1479 1480 1481
1458 1459 1460 1461 1461 1462 1463 1464 1464 1465 1466 1466 1467 1468 1468 1469 1469 1469 1470 1470 1471 1471 1471 1471 1471 1471 1472 1472 1472 1472 1473 1473 1473 1473 1473 1473 1473 1474 1474 1474 1474 1475 1475 1475 1475 1475 1475 1474 1474 1474 1473 1473 1473 1473 1473 1473 1473 1473 1473 1474 1474 1474 1475 1476 1476 1477 1477 1478 1479
1457 1458 1459 1460 1461 1461 1462 1463 1464 1464 1465 1465 1466 1466 1467 1467 1468 1468 1468 1469 1469 1469 1469 1470 1470 1470 1470 1471 1471 1471 1471 1471 1471 1471 1471 1472 1472 1472 1472 1473 1473 1473 1473 1474 1473 1473 1473 1472 1472 1472 1472 1471 1471 1471 1471 1471 1472 1472 1472 1472 1473 1473 1474 1474 1475 1476 1476 1477 1478
1457 1457 1458 1459 1460 1461 1461 1462 1462 1463 1464 1464 1465 1465 1466 1466 1466 1466 1467 1467 1467 1468 1468 1468 1468 1469 1469 1469 1469 1469 1470 1470 1470 1470 1470 1470 1471 1471 1471 1471 1471 1472 1472 1472 1472 1471 1471 1471 1471 1471 1470 1470 1470 1470 1471 1471 1471 1471 1471 1471 1472 1472 1472 1473 1474 1474 1475 1476 1476
1456 1457 1458 1458 1459 1460 1460 1461 1461 1462 1463 1463 1464 1464 1464 1465 1465 1466 1466 1466 1466 1466 1467 1467 1467 1467 1467 1468 1468 1468 1468 1468 1468 1469 1469 1469 1469 1469 1470 1470 1470 1470 1471 1471 1470 1470 1470 1469 1469 1469 1469 1469 1469 1469 1470 1470 1470 1470 1470 1471 1471 1471 1471 1472 1473 1473 1474 1475 1475
1456 1456 1457 1458 1458 1459 1460 1460 1461 1461 1462 1462 1462 1463 1463 1464 1464 1464 1465 1465 1465 1466 1466 1466 1466 1466 1466 1466 1467 1467 1467 1467 1467 1467 1467 1467 1468 1468 1468 1469 1469 1469 1469 1469 1469 1468 1468 1468 1468 1468 1468 1468 1468 1468 1469 1469 1469 1469 1469 1470 1470 1470 1471 1471 1472 1472 1473 1473 1474
1455 1456 1456 1457 1458 1458 1459 1459 1460 1461 1461 1461 1462 1462 1463 1463 1463 1464 1464 1464 1464 1464 1465 1465 1465 1465 1465 1466 1466 1466 1466 1466 1466 1466 1466 1466 1466 1467 1467 1467 1467 1468 1467 1467 1467 1467 1467 1467 1467 1467 1467 1467 1467 1468 1468 1468 1468 1468 1468 1469 1469 1469 1470 1470 1471 1471 1472 1472 1473
1455 1456 1456 1457 1457 1458 1458 1459 1460 1460 1461 1461 1461 1462 1462 1462 1462 1463 1463 1463 1463 1463 1464 1464 1464 1464 1464 1464 1464 1465 1465 1465 1465 1465 1465 1465 1465 1466 1466 1466 1466 1466 1466 1466 1466 1466 1466 1466 1466 1466 1466 1466 1466 1467 1467 1467 1467 1467 1467 1468 1468 1469 1469 1470 1470 1471 1471 1471 1472
1455 1456 1456 1457 1457 1458 1458 1459 1459 1460 1460 1461 1461 1461 1461 1461 1462 1462 1462 1462 1463 1463 1463 1463 1463 1463 1463 1463 1463 1464 1464 1464 1464 1464 1464 1464 1464 1465 1465 1465 1465 1465 1465 1465 1465 1465 1465 1465 1465 1465 1465 1465 1466 1466 1466 1466 1466 1466 1467 1467 1467 1468 1468 1469 1469 1470 1470 1470 1470
1455 1456 1456 1457 1457 1458 1458 1459 1459 1459 1460 1460 1460 1461 1461 1461 1461 1461 1462 1462 1462 1462 1462 1462 1462 1462 1462 1463 1463 1463 1463 1463 1463 1463 1463 1463 1464 1464 1464 1464 1464 1464 1464 1464 1464 1464 1464 1464 1464 1464 1464 1464 1465 1465 1465 1466 1466 1466 1466 1466 1467 1467 1467 1468 1468 1468 1468 1468 1468
1455 1456 1456 1456 1457 1457 1458 1458 1459 1459 1459 1460 1460 1460 1461 1461 1461 1461 1461 1461 1461 1461 1462 1462 1462 1462 1462 1462 1462 1462 1462 1462 1462 1463 1463 1463 1463 1463 1463 1463 1463 1463 1463 1463 1463 1464 1464 1464 1464 1464 1464 1464 1464 1464 1464 1465 1465 1465 1465 1466 1466 1466 1466 1466 1466 1466 1466 1466 1466
1455 1456 1456 1456 1457 1457 1458 1458 1458 1459 1459 1460 1460 1460 1460 1461 1461 1461 1461 1461 1461 1461 1461 1461 1461 1461 1461 1462 1462 1462 1462 1462 1462 1462 1462 1462 1463 1463 1462 1462 1462 1462 1463 1463 1463 1463 1463 1463 1463 1463 1463 1463 1463 1463 1463 1464 1464 1464 1464 1465 1465 1465 1465 1465 1465 1465 1465 1465 1464
1455 1456 1456 1456 1457 1457 1458 1458 1458 1459 1459 1459 1460 1460 1460 1460 1460 1461 1461 1461 1461 1461 1461 1461 1461 1461 1461 1461 1461 1461 1461 1461 1462 1462 1462 1462 1462 1462 1462 1462 1462 1462 1462 1462 1462 1462 1462 1462 1462 1462 1462 1462 1462 1462 1462 1463 1463 1463 1463 1463 1464 1464 1464 1464 1464 1463 1463 1463 1462
1455 1456 1456 1456 1457 1457 1458 1458 1458 1459 1459 1459 1459 1460 1460 1460 1460 1460 1460 1461 1461 1461 1461 1461 1461 1461 1461 1461 1461 1461 1461 1461 1461 1461 1461 1461 1461 1461 1461 1461 1461 1461 1461 1461 1461 1461 1461 1461 1461 1461 1461 1461 1462 1462 1462 1462 1462 1462 1462 1463 1463 1463 1463 1462 1462 1462 1461 1461 1461
1455 1456 1456 1456 1457 1457 1457 1458 1458 1458 1459 1459 1459 1459 1460 1460 1460 1460 1460 1460 1461 1461 1461 1461 1461 1461 1461 1461 1461 1461 1461 1461 1461 1461 1461 1461 1461 1461 1461 1461 1461 1461 1461 1461 1461 1461 1461 1461 1461 1461 1461 1461 1461 1461 1462 1462 1462 1462 1462 1462 1462 1462 1461 1461 1461 1461 1460 1460 1459
1455 1455 1456 1456 1456 1457 1457 1458 1458 1458 1458 1459 1459 1459 1459 1460 1460 1460 1460 1460 1460 1461 1461 1461 1461 1461 1461 1461 1461 1461 1461 1461 1461 1462 1461 1461 1461 1461 1461 1461 1461 1462 1462 1462 1462 1462 1462 1462 1462 1462 1462 1461 1461 1462 1462 1462 1462 1461 1461 1461 1461 1461 1460 1460 1459 1459 1459 1458 1457
1455 1455 1456 1456 1456 1457 1457 1457 1458 1458 1458 1459 1459 1459 1459 1460 1460 1460 1460 1460 1461 1461 1461 1461 1461 1461 1461 1461 1461 1461 1462 1462 1462 1462 1462 1462 1462 1462 1462 1462 1462 1462 1462 1462 1462 1463 1462 1462 1462 1462 1461 1461 1461 1461 1461 1461 1461 1461 1460 1460 1460 1459 1459 1458 1458 1457 1457 1456 1456
1455 1455 1456 1456 1456 1457 1457 1457 1458 1458 1458 1459 1459 1459 1459 1460 1460 1460 1460 1461 1461 1461 1461 1461 1461 1461 1461 1462 1462 1462 1462 1462 1462 1462 1462 1462 1462 1463 1463 1463 1463 1463 1463 1463 1463 1463 1462 1462 1462 1461 1461 1461 1461 1461 1460 1460 1460 1459 1459 1458 1458 1458 1457 1456 1456 1456 1455 1454 1454
1455 1455 1456 1456 1456 1457 1457 1457 1458 1458 1458 1459 1459 1459 1460 1460 1460 1460 1461 1461 1461 1461 1461 1461 1462 1462 1462 1462 1462 1463 1463 1463 1463 1463 1463 1463 1463 1463 1463 1463 1463 1463 1463 1463 1463 1462 1462 1462 1461 1461 1461 1460 1460 1460 1459 1459 1459 1458 1458 1457 1456 1456 1455 1455 1454 1454 1453 1453 1452